VU36VU-13 Weather Reports


time (UTC)temp
C
wind
direction
speed
KPH
gust
KPH
rain 1hr
cm
rain 24hr
cm
rain mn
cm
humidity
%
barometer
mb
20260507213819 22 117 22.5 56.3 0.00 0.00 0.13 85 1010.0
20260507213619 22 117 22.5 56.3 0.00 0.00 0.13 85 1010.0
20260507213419 22 117 22.5 56.3 0.00 0.00 0.13 85 1010.0
20260507213022 22 117 22.5 56.3 0.00 0.00 0.13 85 1010.0
20260507212819 22 118 24.1 54.7 0.00 0.00 0.13 84 1010.0
20260507212619 22 118 24.1 54.7 0.00 0.00 0.13 84 1010.0
20260507212419 22 118 24.1 54.7 0.00 0.00 0.13 84 1010.0
20260507212219 22 118 24.1 54.7 0.00 0.00 0.13 84 1010.0
20260507212019 22 118 24.1 54.7 0.00 0.00 0.13 84 1010.0
20260507211819 22 118 24.1 54.7 0.00 0.00 0.13 84 1010.0
20260507211619 22 118 24.1 54.7 0.00 0.00 0.13 84 1010.0
20260507211219 22 119 25.7 54.7 0.00 0.00 0.13 82 1010.0
20260507211019 22 119 25.7 54.7 0.00 0.00 0.13 82 1010.0
20260507210819 22 119 25.7 54.7 0.00 0.00 0.13 82 1010.0
20260507210619 22 119 25.7 54.7 0.00 0.00 0.13 82 1010.0
20260507210419 22 119 25.7 54.7 0.00 0.00 0.13 82 1010.0
20260507210219 22 119 25.7 54.7 0.00 0.00 0.13 82 1010.0
20260507210024 22 120 25.7 56.3 0.00 0.00 0.13 81 1010.0
20260507205819 22 120 25.7 56.3 0.00 0.00 0.13 81 1010.0
20260507205619 22 120 25.7 56.3 0.00 0.00 0.13 81 1010.0
20260507205420 22 120 25.7 56.3 0.00 0.00 0.13 81 1010.0
20260507205019 22 120 25.7 56.3 0.00 0.00 0.13 81 1010.0
20260507204819 22 120 25.7 56.3 0.00 0.00 0.13 81 1010.0
20260507204619 22 120 25.7 56.3 0.00 0.00 0.13 81 1010.0
20260507204419 23 121 22.5 57.9 0.00 0.00 0.13 79 1010.0
20260507204219 23 121 22.5 57.9 0.00 0.00 0.13 79 1010.0
20260507204019 23 121 22.5 57.9 0.00 0.00 0.13 79 1010.0
20260507203819 23 121 22.5 57.9 0.00 0.00 0.13 79 1010.0
20260507203619 23 121 22.5 57.9 0.00 0.00 0.13 79 1010.0
20260507203419 23 121 22.5 57.9 0.00 0.00 0.13 79 1010.0
20260507203022 23 121 22.5 57.9 0.00 0.00 0.13 79 1010.0
20260507202819 23 121 22.5 59.5 0.00 0.00 0.13 78 1010.0
20260507202619 23 121 22.5 59.5 0.00 0.00 0.13 78 1010.0
20260507202419 23 121 22.5 59.5 0.00 0.00 0.13 78 1010.0
20260507202219 23 121 22.5 59.5 0.00 0.00 0.13 78 1010.0
20260507202019 23 121 22.5 59.5 0.00 0.00 0.13 78 1010.0
20260507201819 23 121 22.5 59.5 0.00 0.00 0.13 78 1010.0
20260507201619 23 121 22.5 59.5 0.00 0.00 0.13 78 1010.0
20260507201419 23 122 20.9 61.2 0.00 0.00 0.13 77 1010.0
20260507201219 23 122 20.9 61.2 0.00 0.00 0.13 77 1010.0
20260507200819 23 122 20.9 61.2 0.00 0.00 0.13 77 1010.0
20260507200619 23 122 20.9 61.2 0.00 0.00 0.13 77 1010.0
20260507200419 23 122 20.9 61.2 0.00 0.00 0.13 77 1010.0
20260507200219 23 122 20.9 61.2 0.00 0.00 0.13 77 1010.0
20260507200024 23 120 22.5 64.4 0.00 0.00 0.13 75 1010.0
20260507195819 23 120 22.5 64.4 0.00 0.00 0.13 75 1010.0
20260507195619 23 120 22.5 64.4 0.00 0.00 0.13 75 1010.0
20260507195419 23 120 22.5 64.4 0.00 0.00 0.13 75 1010.0
20260507195219 23 120 22.5 64.4 0.00 0.00 0.13 75 1010.0
20260507195020 23 120 22.5 64.4 0.00 0.00 0.13 75 1010.0
20260507194619 23 120 22.5 64.4 0.00 0.00 0.13 75 1010.0
20260507194419 23 119 24.1 67.6 0.00 0.00 0.13 74 1011.0
20260507194219 23 119 24.1 67.6 0.00 0.00 0.13 74 1011.0
20260507194020 23 119 24.1 67.6 0.00 0.00 0.13 74 1011.0
20260507193819 23 119 24.1 67.6 0.00 0.00 0.13 74 1011.0
20260507193619 23 119 24.1 67.6 0.00 0.00 0.13 74 1011.0
20260507193419 23 119 24.1 67.6 0.00 0.00 0.13 74 1011.0
20260507193219 23 119 24.1 67.6 0.00 0.00 0.13 74 1011.0
20260507193022 23 119 24.1 67.6 0.00 0.00 0.13 74 1011.0
20260507192819 23 118 27.4 70.8 0.00 0.00 0.13 72 1011.0
20260507192419 23 118 27.4 70.8 0.00 0.00 0.13 72 1011.0
20260507192219 23 118 27.4 70.8 0.00 0.00 0.13 72 1011.0
20260507192020 23 118 27.4 70.8 0.00 0.00 0.13 72 1011.0
20260507191819 23 118 27.4 70.8 0.00 0.00 0.13 72 1011.0
20260507191619 23 118 27.4 70.8 0.00 0.00 0.13 72 1011.0
20260507191419 23 118 29.0 74.0 0.00 0.00 0.13 71 1011.0
20260507191219 23 118 29.0 74.0 0.00 0.00 0.13 71 1011.0
20260507191020 23 118 29.0 74.0 0.00 0.00 0.13 71 1011.0
20260507190819 23 118 29.0 74.0 0.00 0.00 0.13 71 1011.0
20260507190620 23 118 29.0 74.0 0.00 0.00 0.13 71 1011.0
20260507190219 23 118 29.0 74.0 0.00 0.00 0.13 71 1011.0
20260507190024 24 117 29.0 74.0 0.00 0.00 0.00 69 1011.0
20260507185819 24 117 29.0 74.0 0.00 0.00 0.00 69 1011.0
20260507185619 24 117 29.0 74.0 0.00 0.00 0.00 69 1011.0
20260507185419 24 117 29.0 74.0 0.00 0.00 0.00 69 1011.0
20260507185219 24 117 29.0 74.0 0.00 0.00 0.00 69 1011.0
20260507185019 24 117 29.0 74.0 0.00 0.00 0.00 69 1011.0
20260507184819 24 117 29.0 74.0 0.00 0.00 0.00 69 1011.0
20260507184620 24 117 29.0 74.0 0.00 0.00 0.00 69 1011.0
20260507184219 24 115 29.0 66.0 0.00 0.00 0.00 68 1011.0
20260507184020 24 115 29.0 66.0 0.00 0.00 0.00 68 1011.0
20260507183819 24 115 29.0 66.0 0.00 0.00 0.00 68 1011.0
20260507183619 24 115 29.0 66.0 0.00 0.00 0.00 68 1011.0
20260507183419 24 115 29.0 66.0 0.00 0.00 0.00 68 1011.0
20260507183219 24 115 29.0 66.0 0.00 0.00 0.00 68 1011.0
20260507183022 25 115 29.0 66.0 0.00 0.00 0.00 66 1011.0
20260507182819 25 113 29.0 66.0 0.00 0.00 0.00 65 1011.0
20260507182619 25 113 29.0 66.0 0.00 0.00 0.00 65 1011.0
20260507182420 25 113 29.0 66.0 0.00 0.00 0.00 65 1011.0
20260507182020 25 113 29.0 66.0 0.00 0.00 0.00 65 1011.0
20260507181819 25 113 29.0 66.0 0.00 0.00 0.00 68 1011.0
20260507181619 25 113 29.0 66.0 0.00 0.00 0.00 68 1011.0
20260507181419 25 113 29.0 66.0 0.00 0.00 0.00 67 1011.0
20260507181219 25 113 29.0 66.0 0.00 0.00 0.00 67 1011.0
20260507181020 25 113 29.0 66.0 0.00 0.00 0.00 67 1011.0
20260507180819 25 113 29.0 66.0 0.00 0.00 0.00 67 1011.0
20260507180619 25 113 29.0 66.0 0.00 0.00 0.00 67 1011.0
20260507180419 25 113 29.0 66.0 0.00 0.00 0.00 67 1011.0
20260507180220 25 113 29.0 66.0 0.00 0.00 0.00 67 1011.0
20260507175819 25 115 29.0 66.0 0.00 0.00 0.00 66 1011.0
20260507175619 25 115 29.0 66.0 0.00 0.00 0.00 66 1011.0
20260507175419 25 115 29.0 66.0 0.00 0.00 0.00 66 1011.0
20260507175219 25 115 29.0 66.0 0.00 0.00 0.00 66 1011.0
20260507175020 25 115 29.0 66.0 0.00 0.00 0.00 66 1011.0
20260507174819 25 115 29.0 66.0 0.00 0.00 0.00 66 1011.0
20260507174619 25 115 29.0 66.0 0.00 0.00 0.00 66 1011.0
20260507174419 25 118 27.4 64.4 0.00 0.00 0.00 65 1011.0
20260507174219 25 118 27.4 64.4 0.00 0.00 0.00 65 1011.0
20260507171219 25 125 27.4 61.2 0.00 0.00 0.00 63 1011.0
20260507171122 25 125 27.4 61.2 0.00 0.00 0.00 63 1011.0
20260507170819 25 125 27.4 61.2 0.00 0.00 0.00 63 1011.0
20260507170619 25 125 27.4 61.2 0.00 0.00 0.00 63 1011.0
20260507170419 25 125 27.4 61.2 0.00 0.00 0.00 63 1011.0
20260507170219 25 125 27.4 61.2 0.00 0.00 0.00 63 1011.0
20260507170024 25 129 27.4 61.2 0.00 0.00 0.00 62 1011.0
20260507165819 25 129 27.4 61.2 0.00 0.00 0.00 62 1011.0
20260507165619 25 129 27.4 61.2 0.00 0.00 0.00 62 1011.0
20260507165219 25 129 27.4 61.2 0.00 0.00 0.00 62 1011.0
20260507165020 25 129 27.4 61.2 0.00 0.00 0.00 62 1011.0
20260507164819 25 129 27.4 61.2 0.00 0.00 0.00 62 1011.0
20260507164619 25 129 27.4 61.2 0.00 0.00 0.00 62 1011.0
20260507164419 26 134 27.4 61.2 0.00 0.00 0.00 61 1011.0
20260507164219 26 134 27.4 61.2 0.00 0.00 0.00 61 1011.0
20260507164020 26 134 27.4 61.2 0.00 0.00 0.00 61 1011.0
20260507163819 26 134 27.4 61.2 0.00 0.00 0.00 61 1011.0
20260507163619 26 134 27.4 61.2 0.00 0.00 0.00 61 1011.0
20260507163420 26 134 27.4 61.2 0.00 0.00 0.00 61 1011.0
20260507163022 26 134 27.4 61.2 0.00 0.00 0.00 61 1011.0
20260507162819 26 138 27.4 62.8 0.00 0.00 0.00 60 1011.0
20260507162619 26 138 27.4 62.8 0.00 0.00 0.00 60 1011.0
20260507162419 26 138 27.4 62.8 0.00 0.00 0.00 60 1011.0
20260507162220 26 138 27.4 62.8 0.00 0.00 0.00 60 1011.0
20260507162020 26 138 27.4 62.8 0.00 0.00 0.00 60 1011.0
20260507161819 26 138 27.4 62.8 0.00 0.00 0.00 60 1011.0
20260507161619 26 138 27.4 62.8 0.00 0.00 0.00 60 1011.0
20260507161419 26 142 27.4 62.8 0.00 0.00 0.00 59 1011.0
20260507161020 26 142 27.4 62.8 0.00 0.00 0.00 59 1011.0
20260507160819 26 142 27.4 62.8 0.00 0.00 0.00 59 1011.0
20260507160619 26 142 27.4 62.8 0.00 0.00 0.00 59 1011.0
20260507160419 26 142 27.4 62.8 0.00 0.00 0.00 59 1011.0
20260507160219 26 142 27.4 62.8 0.00 0.00 0.00 59 1011.0
20260507160024 26 143 27.4 62.8 0.00 0.00 0.00 57 1011.0
20260507155819 26 143 27.4 62.8 0.00 0.00 0.00 57 1011.0
20260507155619 26 143 27.4 62.8 0.00 0.00 0.00 57 1011.0
20260507155419 26 143 27.4 62.8 0.00 0.00 0.00 57 1011.0
20260507155220 26 143 27.4 62.8 0.00 0.00 0.00 57 1011.0
20260507154819 26 143 27.4 62.8 0.00 0.00 0.00 57 1011.0
20260507154620 26 143 27.4 62.8 0.00 0.00 0.00 57 1011.0
20260507154419 26 145 27.4 64.4 0.00 0.00 0.00 55 1010.0
20260507154219 26 145 27.4 64.4 0.00 0.00 0.00 55 1010.0
20260507154021 26 145 27.4 64.4 0.00 0.00 0.00 55 1010.0
20260507153819 26 145 27.4 64.4 0.00 0.00 0.00 55 1010.0
20260507153620 26 145 27.4 64.4 0.00 0.00 0.00 55 1010.0
20260507153419 26 145 27.4 64.4 0.00 0.00 0.00 55 1010.0
20260507153219 26 145 27.4 64.4 0.00 0.00 0.00 55 1010.0
20260507152819 27 145 27.4 64.4 0.00 0.00 0.00 53 1010.0
20260507152620 27 145 27.4 64.4 0.00 0.00 0.00 53 1010.0
20260507152419 27 145 27.4 64.4 0.00 0.00 0.00 53 1010.0
20260507152219 27 145 27.4 64.4 0.00 0.00 0.00 53 1010.0
20260507152020 27 145 27.4 64.4 0.00 0.00 0.00 53 1010.0
20260507151830 27 145 27.4 64.4 0.00 0.00 0.00 53 1010.0
20260507151819 27 145 27.4 64.4 0.00 0.00 0.00 53 1010.0
20260507151619 27 145 27.4 64.4 0.00 0.00 0.00 53 1010.0
20260507151419 27 140 24.1 64.4 0.00 0.00 0.00 52 1010.0
20260507151219 27 140 24.1 64.4 0.00 0.00 0.00 52 1010.0
20260507151022 27 140 24.1 64.4 0.00 0.00 0.00 52 1010.0
20260507150839 27 140 24.1 64.4 0.00 0.00 0.00 52 1010.0
20260507150639 27 140 24.1 64.4 0.00 0.00 0.00 52 1010.0
20260507150439 27 140 24.1 64.4 0.00 0.00 0.00 52 1010.0
20260507150239 27 140 24.1 64.4 0.00 0.00 0.00 52 1010.0
20260507150041 27 140 24.1 64.4 0.00 0.00 0.00 52 1010.0
20260507145839 27 124 20.9 62.8 0.00 0.00 0.00 50 1009.0
20260507145639 27 124 20.9 62.8 0.00 0.00 0.00 50 1009.0
20260507145439 27 124 20.9 62.8 0.00 0.00 0.00 50 1009.0
20260507145239 27 124 20.9 62.8 0.00 0.00 0.00 50 1009.0
20260507144839 27 124 20.9 62.8 0.00 0.00 0.00 50 1009.0
20260507144639 27 124 20.9 62.8 0.00 0.00 0.00 50 1009.0
20260507144439 28 93 19.3 59.5 0.00 0.00 0.00 49 1009.0
20260507144239 28 93 19.3 59.5 0.00 0.00 0.00 49 1009.0
20260507144039 28 93 19.3 59.5 0.00 0.00 0.00 49 1009.0
20260507143839 28 93 19.3 59.5 0.00 0.00 0.00 49 1009.0
20260507143639 28 93 19.3 59.5 0.00 0.00 0.00 49 1009.0
20260507143439 28 93 19.3 59.5 0.00 0.00 0.00 49 1009.0
20260507143239 28 93 19.3 59.5 0.00 0.00 0.00 49 1009.0
20260507143040 28 93 19.3 59.5 0.00 0.00 0.00 49 1009.0
20260507142639 28 68 22.5 56.3 0.00 0.00 0.00 48 1009.0
20260507142439 28 68 22.5 56.3 0.00 0.00 0.00 48 1009.0
20260507142239 28 68 22.5 56.3 0.00 0.00 0.00 48 1009.0
20260507142039 28 68 22.5 56.3 0.00 0.00 0.00 48 1009.0
20260507141839 28 68 22.5 56.3 0.00 0.00 0.00 48 1009.0
20260507141639 28 68 22.5 56.3 0.00 0.00 0.00 48 1009.0
20260507141439 28 56 25.7 54.7 0.00 0.00 0.00 47 1008.0
20260507141239 28 56 25.7 54.7 0.00 0.00 0.00 47 1008.0
20260507141039 28 56 25.7 54.7 0.00 0.00 0.00 47 1008.0
20260507140639 28 56 25.7 54.7 0.00 0.00 0.00 47 1008.0
20260507140439 28 56 25.7 54.7 0.00 0.00 0.00 47 1008.0
20260507140239 28 56 25.7 54.7 0.00 0.00 0.00 47 1008.0
20260507140042 28 56 25.7 54.7 0.00 0.00 0.00 47 1008.0
20260507135839 28 54 24.1 57.9 0.00 0.00 0.00 46 1008.0
20260507135639 28 54 24.1 57.9 0.00 0.00 0.00 46 1008.0
20260507135439 28 54 24.1 57.9 0.00 0.00 0.00 46 1008.0
20260507135239 28 54 24.1 57.9 0.00 0.00 0.00 46 1008.0
20260507135039 28 54 24.1 57.9 0.00 0.00 0.00 46 1008.0
20260507134840 28 54 24.1 57.9 0.00 0.00 0.00 46 1008.0
20260507134439 28 57 20.9 61.2 0.00 0.00 0.00 46 1008.0
20260507134239 28 57 20.9 61.2 0.00 0.00 0.00 46 1008.0
20260507134039 28 57 20.9 61.2 0.00 0.00 0.00 46 1008.0
20260507133839 28 57 20.9 61.2 0.00 0.00 0.00 46 1008.0
20260507133639 28 57 20.9 61.2 0.00 0.00 0.00 46 1008.0
20260507133439 28 57 20.9 61.2 0.00 0.00 0.00 46 1008.0
20260507133239 28 42 25.7 61.2 0.00 0.00 0.00 46 1008.0
20260507133039 28 42 25.7 61.2 0.00 0.00 0.00 46 1008.0
20260507132839 28 38 24.1 66.0 0.00 0.00 0.00 46 1008.0
20260507132640 28 40 24.1 66.0 0.00 0.00 0.00 46 1008.0
20260507132239 28 40 24.1 66.0 0.00 0.00 0.00 46 1008.0
20260507132039 28 40 24.1 66.0 0.00 0.00 0.00 46 1008.0
20260507131839 28 40 24.1 66.0 0.00 0.00 0.00 46 1008.0
20260507131639 28 40 24.1 70.8 0.00 0.00 0.00 46 1008.0
20260507131439 28 48 25.7 70.8 0.00 0.00 0.00 45 1007.0
20260507131239 28 48 25.7 70.8 0.00 0.00 0.00 45 1007.0
20260507131039 28 48 25.7 70.8 0.00 0.00 0.00 45 1007.0
20260507130839 28 48 25.7 70.8 0.00 0.00 0.00 45 1007.0
20260507130639 28 48 25.7 70.8 0.00 0.00 0.00 45 1007.0
20260507130239 30 48 25.7 70.8 0.00 0.00 0.00 42 1007.0
20260507130041 30 48 25.7 70.8 0.00 0.00 0.00 42 1007.0
20260507125839 30 57 24.1 70.8 0.00 0.00 0.00 41 1007.0
20260507125639 30 57 24.1 70.8 0.00 0.00 0.00 41 1007.0
20260507125439 30 57 24.1 70.8 0.00 0.00 0.00 41 1007.0
20260507125239 30 57 24.1 70.8 0.00 0.00 0.00 41 1007.0
20260507125039 30 57 24.1 70.8 0.00 0.00 0.00 41 1007.0
20260507124839 30 57 24.1 70.8 0.00 0.00 0.00 41 1007.0
20260507124639 30 57 24.1 70.8 0.00 0.00 0.00 41 1007.0
20260507124439 30 67 24.1 74.0 0.00 0.00 0.00 40 1007.0
20260507124039 30 67 24.1 74.0 0.00 0.00 0.00 40 1007.0
20260507123839 30 67 24.1 74.0 0.00 0.00 0.00 40 1006.0
20260507123639 30 67 24.1 74.0 0.00 0.00 0.00 40 1006.0
20260507123439 30 67 24.1 74.0 0.00 0.00 0.00 40 1006.0
20260507123239 30 67 24.1 74.0 0.00 0.00 0.03 40 1006.0
20260507123039 30 67 24.1 74.0 0.00 0.00 0.03 38 1006.0
20260507122839 31 78 24.1 77.2 0.00 0.00 0.03 37 1006.0
20260507122639 31 78 24.1 77.2 0.00 0.00 0.03 37 1006.0
20260507122439 31 78 24.1 77.2 0.00 0.00 0.03 37 1006.0
20260507122240 31 78 24.1 77.2 0.00 0.00 0.03 37 1006.0
20260507121839 31 78 24.1 77.2 0.00 0.00 0.03 37 1006.0
20260507121639 31 78 24.1 77.2 0.00 0.00 0.03 37 1006.0
20260507121439 31 85 25.7 77.2 0.00 0.00 0.03 36 1006.0
20260507121239 31 85 25.7 77.2 0.00 0.00 0.03 36 1006.0
20260507121039 31 85 25.7 77.2 0.00 0.00 0.03 36 1006.0
20260507120839 31 85 25.7 77.2 0.00 0.00 0.03 36 1006.0
20260507120639 31 85 25.7 77.2 0.00 0.00 0.03 36 1006.0
20260507120439 31 85 25.7 77.2 0.00 0.00 0.03 36 1006.0
20260507120239 31 85 25.7 77.2 0.00 0.00 0.03 36 1006.0
20260507120042 31 85 25.7 77.2 0.00 0.00 0.03 36 1006.0
20260507115639 31 85 25.7 77.2 0.00 0.00 0.03 35 1006.0
20260507115439 31 85 25.7 77.2 0.00 0.00 0.03 35 1006.0
20260507115239 31 85 25.7 77.2 0.00 0.00 0.03 35 1006.0
20260507115039 31 85 25.7 77.2 0.00 0.00 0.03 35 1006.0
20260507114839 31 85 25.7 77.2 0.00 0.00 0.03 35 1006.0
20260507114639 31 85 25.7 77.2 0.00 0.00 0.03 35 1006.0
20260507114439 31 83 25.7 77.2 0.00 0.00 0.03 34 1005.0
20260507114239 31 83 25.7 77.2 0.00 0.00 0.03 34 1005.0
20260507114039 31 83 25.7 77.2 0.00 0.00 0.03 34 1005.0
20260507113639 31 83 25.7 77.2 0.00 0.00 0.03 34 1005.0
20260507113439 31 83 25.7 77.2 0.00 0.00 0.03 34 1005.0
20260507113239 31 83 25.7 77.2 0.00 0.00 0.03 34 1005.0
20260507113039 31 83 25.7 77.2 0.00 0.00 0.03 34 1005.0
20260507112839 32 78 25.7 77.2 0.00 0.00 0.03 33 1005.0
20260507112639 32 78 25.7 77.2 0.00 0.00 0.03 33 1005.0
20260507112439 32 78 25.7 77.2 0.00 0.00 0.03 33 1005.0
20260507112239 32 78 25.7 77.2 0.00 0.00 0.03 33 1005.0
20260507112041 32 78 25.7 77.2 0.00 0.00 0.03 33 1005.0
20260507111841 32 78 25.7 77.2 0.00 0.00 0.03 33 1005.0
20260507111439 32 76 25.7 77.2 0.00 0.00 0.03 33 1005.0
20260507111239 32 76 25.7 77.2 0.00 0.00 0.03 33 1005.0
20260507111039 32 76 25.7 77.2 0.00 0.00 0.03 33 1005.0
20260507110839 32 76 25.7 77.2 0.00 0.00 0.03 33 1005.0
20260507110639 32 76 25.7 77.2 0.00 0.00 0.03 33 1005.0
20260507110439 32 76 25.7 77.2 0.00 0.00 0.03 33 1005.0
20260507110239 32 76 25.7 77.2 0.00 0.00 0.03 33 1005.0
20260507110042 32 76 25.7 77.2 0.00 0.00 0.03 33 1005.0
20260507105840 32 77 24.1 77.2 0.00 0.00 0.03 33 1005.0
20260507105439 32 77 24.1 77.2 0.00 0.00 0.03 33 1005.0
20260507105239 32 77 24.1 77.2 0.00 0.00 0.03 33 1005.0
20260507105039 32 77 24.1 77.2 0.00 0.00 0.03 33 1005.0
20260507104839 32 77 24.1 77.2 0.00 0.00 0.03 33 1005.0
20260507104639 32 77 24.1 77.2 0.00 0.00 0.03 33 1005.0
20260507104439 32 79 24.1 77.2 0.00 0.00 0.03 32 1005.0
20260507104239 32 79 24.1 77.2 0.00 0.00 0.03 32 1005.0
20260507104039 32 79 24.1 77.2 0.00 0.00 0.03 32 1005.0
20260507103839 32 79 24.1 77.2 0.00 0.00 0.03 32 1005.0
20260507103640 32 79 24.1 77.2 0.00 0.00 0.03 32 1005.0
20260507101439 32 86 22.5 80.5 0.00 0.00 0.03 32 1006.0
20260507101239 32 86 22.5 80.5 0.00 0.00 0.03 32 1006.0
20260507101039 32 86 22.5 80.5 0.00 0.00 0.03 32 1006.0
20260507100839 32 86 22.5 80.5 0.00 0.00 0.03 32 1006.0
20260507100640 32 86 22.5 80.5 0.00 0.00 0.03 32 1006.0
20260507100439 32 86 22.5 80.5 0.00 0.00 0.03 32 1006.0
20260507100239 32 86 22.5 80.5 0.00 0.00 0.03 32 1006.0
20260507100041 32 86 22.5 80.5 0.00 0.00 0.03 32 1006.0
20260507095839 32 87 22.5 82.1 0.00 0.00 0.03 33 1006.0
20260507095639 32 87 22.5 82.1 0.00 0.00 0.03 33 1006.0
20260507095239 32 87 22.5 82.1 0.00 0.00 0.03 33 1006.0
20260507095039 32 87 22.5 82.1 0.00 0.00 0.03 33 1006.0
20260507094839 32 87 22.5 82.1 0.00 0.00 0.03 33 1006.0
20260507094639 32 87 22.5 82.1 0.00 0.00 0.03 33 1006.0
20260507094439 32 87 22.5 83.7 0.00 0.00 0.03 33 1006.0
20260507094239 32 87 22.5 83.7 0.00 0.00 0.03 33 1006.0
20260507094039 32 87 22.5 83.7 0.00 0.00 0.03 33 1006.0
20260507093839 32 87 22.5 83.7 0.00 0.00 0.03 33 1006.0
20260507093639 32 87 22.5 83.7 0.00 0.00 0.03 33 1006.0
20260507093439 32 87 22.5 83.7 0.00 0.00 0.03 33 1006.0
20260507093040 32 87 22.5 83.7 0.00 0.00 0.03 33 1006.0
20260507092839 32 89 22.5 85.3 0.00 0.00 0.03 34 1006.0
20260507092639 32 89 22.5 85.3 0.00 0.00 0.03 34 1006.0
20260507092439 32 89 22.5 85.3 0.00 0.00 0.03 34 1006.0
20260507092239 32 95 24.1 85.3 0.00 0.00 0.03 34 1006.0
20260507092039 32 95 24.1 85.3 0.00 0.00 0.03 34 1006.0
20260507091839 32 95 24.1 85.3 0.00 0.00 0.03 34 1006.0
20260507091639 32 95 24.1 85.3 0.00 0.00 0.03 34 1006.0
20260507091439 32 99 24.1 85.3 0.00 0.00 0.03 34 1006.0
20260507091240 32 99 24.1 85.3 0.00 0.00 0.03 34 1006.0
20260507090839 32 99 24.1 85.3 0.00 0.00 0.03 34 1006.0
20260507090639 32 99 24.1 85.3 0.00 0.00 0.03 34 1006.0
20260507090439 32 99 24.1 85.3 0.00 0.00 0.03 34 1006.0
20260507090239 32 99 24.1 85.3 0.00 0.00 0.03 34 1006.0
20260507090041 32 99 24.1 85.3 0.00 0.00 0.03 34 1006.0
20260507085839 32 100 24.1 85.3 0.00 0.00 0.03 34 1007.0
20260507085639 32 100 24.1 85.3 0.00 0.00 0.03 34 1007.0
20260507085439 32 100 24.1 85.3 0.00 0.00 0.03 34 1007.0
20260507085239 32 100 24.1 85.3 0.00 0.00 0.03 34 1007.0
20260507084839 32 100 24.1 85.3 0.00 0.00 0.03 34 1007.0
20260507084639 32 100 24.1 85.3 0.00 0.00 0.03 34 1007.0
20260507084439 32 102 24.1 85.3 0.00 0.00 0.03 34 1007.0
20260507084239 32 102 24.1 85.3 0.00 0.00 0.03 34 1007.0
20260507084039 32 102 24.1 85.3 0.00 0.00 0.03 34 1007.0
20260507083839 32 102 24.1 85.3 0.00 0.00 0.03 34 1007.0
20260507083639 32 102 24.1 85.3 0.00 0.00 0.03 34 1007.0
20260507083439 32 102 24.1 85.3 0.00 0.00 0.03 34 1007.0
20260507083239 32 102 24.1 85.3 0.00 0.00 0.03 34 1007.0
20260507083039 32 102 24.1 85.3 0.00 0.00 0.03 34 1007.0
20260507082639 32 103 24.1 85.3 0.00 0.00 0.03 33 1007.0
20260507082439 32 103 24.1 85.3 0.00 0.00 0.03 33 1007.0
20260507082239 32 103 24.1 85.3 0.00 0.00 0.03 33 1007.0
20260507082039 32 103 24.1 85.3 0.00 0.00 0.03 33 1007.0
20260507081840 32 103 24.1 85.3 0.00 0.00 0.03 33 1007.0
20260507081639 32 103 24.1 85.3 0.00 0.00 0.03 33 1007.0
20260507081439 32 105 22.5 83.7 0.00 0.00 0.03 34 1008.0
20260507081239 32 105 22.5 83.7 0.00 0.00 0.03 34 1008.0
20260507081039 32 105 22.5 83.7 0.00 0.00 0.03 34 1008.0
20260507080840 32 105 22.5 83.7 0.00 0.00 0.03 34 1008.0
20260507074639 32 108 22.5 82.1 0.00 0.00 0.03 34 1008.0
20260507074444 32 113 22.5 82.1 0.00 0.00 0.03 35 1008.0
20260507074239 32 113 22.5 82.1 0.00 0.00 0.03 35 1008.0
20260507074039 32 113 22.5 82.1 0.00 0.00 0.03 35 1008.0
20260507073839 32 113 22.5 82.1 0.00 0.00 0.03 35 1008.0
20260507073639 32 113 22.5 82.1 0.00 0.00 0.03 35 1008.0
20260507073439 32 113 22.5 82.1 0.00 0.00 0.03 35 1008.0
20260507073239 32 113 22.5 82.1 0.00 0.00 0.03 35 1008.0
20260507073040 32 113 22.5 82.1 0.00 0.00 0.03 35 1008.0
20260507072839 31 118 22.5 80.5 0.00 0.00 0.03 35 1009.0
20260507072439 31 118 22.5 80.5 0.00 0.00 0.03 35 1009.0
20260507072239 31 118 22.5 80.5 0.00 0.00 0.03 35 1009.0
20260507072039 31 118 22.5 80.5 0.00 0.00 0.03 35 1009.0
20260507071841 31 118 22.5 80.5 0.00 0.00 0.03 35 1009.0
20260507071639 31 118 22.5 80.5 0.00 0.00 0.03 35 1009.0
20260507071439 31 122 20.9 78.9 0.00 0.00 0.03 36 1009.0
20260507071239 31 122 20.9 78.9 0.00 0.00 0.03 36 1009.0
20260507071039 31 122 20.9 78.9 0.00 0.00 0.03 36 1009.0
20260507070839 31 122 20.9 78.9 0.00 0.00 0.03 36 1009.0
20260507070640 31 122 20.9 78.9 0.00 0.00 0.03 36 1009.0
20260507070239 31 122 20.9 78.9 0.00 0.00 0.03 36 1009.0
20260507070042 31 122 20.9 78.9 0.00 0.00 0.03 36 1009.0
20260507065839 31 122 20.9 77.2 0.00 0.00 0.03 37 1009.0
20260507065639 31 122 20.9 77.2 0.00 0.00 0.03 37 1009.0
20260507065439 31 122 20.9 77.2 0.00 0.00 0.03 37 1009.0
20260507065239 31 122 20.9 77.2 0.00 0.00 0.03 37 1009.0
20260507065039 31 122 20.9 77.2 0.00 0.00 0.03 37 1009.0
20260507064840 31 122 20.9 77.2 0.00 0.00 0.03 37 1009.0
20260507064640 31 122 20.9 77.2 0.00 0.00 0.03 37 1009.0
20260507064239 31 122 20.9 77.2 0.00 0.00 0.03 38 1010.0
20260507064039 31 122 20.9 77.2 0.00 0.00 0.03 38 1010.0
20260507063839 31 122 20.9 77.2 0.00 0.00 0.03 38 1010.0
20260507063639 31 122 20.9 77.2 0.00 0.00 0.03 38 1010.0
20260507063440 31 122 20.9 77.2 0.00 0.00 0.03 38 1010.0
20260507063239 31 122 20.9 77.2 0.00 0.00 0.03 38 1010.0
20260507063040 31 122 20.9 77.2 0.00 0.00 0.03 38 1010.0
20260507062839 31 122 19.3 77.2 0.00 0.00 0.03 39 1010.0
20260507062639 31 122 19.3 77.2 0.00 0.00 0.03 39 1010.0
20260507062440 31 122 19.3 77.2 0.00 0.00 0.03 39 1010.0
20260507062039 31 122 19.3 77.2 0.00 0.00 0.03 39 1010.0
20260507061839 31 122 19.3 77.2 0.00 0.00 0.03 39 1010.0
20260507061639 31 122 19.3 77.2 0.00 0.00 0.03 39 1010.0
20260507061444 30 124 17.7 77.2 0.00 0.00 0.03 40 1010.0
20260507061239 30 124 17.7 77.2 0.00 0.00 0.03 40 1010.0
20260507061039 30 124 17.7 77.2 0.00 0.00 0.03 40 1010.0
20260507060839 30 124 17.7 77.2 0.00 0.00 0.03 40 1010.0
20260507060639 30 124 17.7 77.2 0.00 0.00 0.03 40 1010.0
20260507060439 30 124 17.7 77.2 0.00 0.00 0.03 40 1010.0
20260507060042 30 124 17.7 77.2 0.00 0.00 0.03 40 1010.0
20260507055839 30 129 17.7 75.6 0.00 0.00 0.03 41 1010.0
20260507055639 30 129 17.7 75.6 0.00 0.00 0.03 41 1010.0
20260507055439 30 129 17.7 75.6 0.00 0.00 0.03 41 1010.0
20260507055239 30 129 17.7 75.6 0.00 0.00 0.03 41 1010.0
20260507055039 30 129 17.7 75.6 0.00 0.00 0.03 41 1010.0
20260507054839 30 129 17.7 75.6 0.00 0.00 0.03 41 1010.0
20260507054639 30 129 17.7 75.6 0.00 0.00 0.03 41 1010.0
20260507054439 30 138 16.1 74.0 0.00 0.00 0.03 43 1011.0
20260507054239 30 138 16.1 74.0 0.00 0.00 0.03 43 1011.0
20260507053839 30 138 16.1 74.0 0.00 0.00 0.03 43 1011.0
20260507053639 30 138 16.1 74.0 0.00 0.00 0.03 43 1011.0
20260507053439 30 138 16.1 74.0 0.00 0.00 0.03 43 1011.0
20260507053239 30 138 16.1 74.0 0.00 0.00 0.03 43 1011.0
20260507053040 30 138 16.1 74.0 0.00 0.00 0.03 43 1011.0
20260507052839 29 146 16.1 70.8 0.00 0.00 0.03 45 1011.0
20260507052639 29 146 16.1 70.8 0.00 0.00 0.03 45 1011.0
20260507052441 29 146 16.1 70.8 0.00 0.00 0.03 45 1011.0
20260507052239 29 146 16.1 70.8 0.00 0.00 0.03 45 1011.0
20260507052039 29 146 16.1 70.8 0.00 0.00 0.03 45 1011.0
20260507051640 29 146 16.1 70.8 0.00 0.00 0.03 45 1011.0
20260507051440 29 153 16.1 70.8 0.00 0.00 0.03 47 1011.0
20260507051240 29 153 16.1 70.8 0.00 0.00 0.03 47 1011.0
20260507051040 29 153 16.1 70.8 0.00 0.00 0.03 47 1011.0
20260507050840 29 153 16.1 70.8 0.00 0.00 0.03 47 1011.0
20260507050640 29 153 16.1 70.8 0.00 0.00 0.03 47 1011.0
20260507050440 29 153 16.1 70.8 0.00 0.00 0.03 47 1011.0
20260507050240 29 153 16.1 70.8 0.00 0.00 0.03 47 1011.0
20260507050042 29 153 16.1 70.8 0.00 0.00 0.03 47 1011.0
20260507045840 28 159 16.1 70.8 0.00 0.00 0.03 49 1011.0
20260507045439 28 159 16.1 70.8 0.00 0.00 0.03 49 1011.0
20260507045239 28 159 16.1 70.8 0.00 0.00 0.03 49 1011.0
20260507045039 28 159 16.1 70.8 0.00 0.00 0.03 49 1011.0
20260507044839 28 159 16.1 70.8 0.00 0.00 0.03 49 1011.0
20260507044639 28 159 16.1 70.8 0.00 0.00 0.03 49 1011.0
20260507044439 28 162 17.7 70.8 0.00 0.00 0.03 51 1011.0
20260507044239 28 162 17.7 70.8 0.00 0.00 0.03 51 1011.0
20260507044039 28 162 17.7 70.8 0.00 0.00 0.03 51 1011.0
20260507043839 28 162 17.7 70.8 0.00 0.00 0.03 51 1011.0
20260507043639 28 162 17.7 70.8 0.00 0.00 0.03 51 1011.0
20260507043240 28 162 17.7 70.8 0.00 0.00 0.03 51 1011.0
20260507043040 28 162 17.7 70.8 0.00 0.00 0.03 51 1011.0
20260507042840 27 164 19.3 70.8 0.00 0.00 0.03 54 1011.0
20260507042640 27 164 19.3 70.8 0.00 0.00 0.03 54 1011.0
20260507042439 27 164 19.3 70.8 0.00 0.00 0.03 54 1011.0
20260507042240 27 164 19.3 70.8 0.00 0.00 0.03 54 1011.0
20260507042040 27 164 19.3 70.8 0.00 0.00 0.03 54 1011.0
20260507041839 27 164 19.3 70.8 0.00 0.00 0.03 54 1011.0
20260507041640 27 164 19.3 70.8 0.00 0.00 0.03 54 1011.0
20260507041440 27 164 20.9 70.8 0.00 0.00 0.03 57 1011.0
20260507041039 27 164 20.9 70.8 0.00 0.00 0.03 57 1011.0
20260507040839 27 164 20.9 70.8 0.00 0.00 0.03 57 1011.0
20260507040639 27 164 20.9 70.8 0.00 0.00 0.03 57 1011.0
20260507040439 27 164 20.9 70.8 0.00 0.00 0.03 57 1011.0
20260507040240 27 164 20.9 70.8 0.00 0.00 0.03 57 1011.0
20260507040042 27 164 20.9 70.8 0.00 0.00 0.03 57 1011.0
20260507035839 26 165 20.9 70.8 0.00 0.00 0.03 60 1011.0
20260507035639 26 165 20.9 70.8 0.00 0.00 0.03 60 1011.0
20260507035440 26 165 20.9 70.8 0.00 0.00 0.03 60 1011.0
20260507035240 26 165 20.9 70.8 0.00 0.00 0.03 60 1011.0
20260507034842 26 165 20.9 70.8 0.00 0.00 0.03 60 1011.0
20260507034240 26 164 20.9 70.8 0.00 0.00 0.03 62 1011.0
20260507033844 26 164 20.9 70.8 0.00 0.00 0.03 62 1011.0
20260507033641 26 164 20.9 70.8 0.00 0.00 0.03 62 1011.0
20260507033440 26 164 20.9 70.8 0.00 0.00 0.03 62 1011.0
20260507033240 26 164 20.9 70.8 0.00 0.00 0.03 62 1011.0
20260507033041 26 164 20.9 70.8 0.00 0.00 0.03 62 1011.0
20260507032639 25 163 22.5 70.8 0.00 0.00 0.03 66 1011.0
20260507032439 25 163 22.5 70.8 0.00 0.00 0.03 66 1011.0
20260507032239 25 163 22.5 70.8 0.00 0.00 0.03 66 1011.0
20260507032040 25 163 22.5 70.8 0.00 0.00 0.03 66 1011.0
20260507031839 25 163 22.5 70.8 0.00 0.00 0.03 66 1011.0
20260507031639 25 163 22.5 70.8 0.00 0.00 0.03 66 1011.0
20260507031439 25 162 22.5 69.2 0.00 0.00 0.03 69 1011.0
20260507031239 25 162 22.5 69.2 0.00 0.00 0.03 69 1011.0
20260507031040 25 162 22.5 69.2 0.00 0.00 0.03 69 1011.0
20260507030639 25 162 22.5 69.2 0.00 0.00 0.03 69 1011.0
20260507030440 25 162 22.5 69.2 0.00 0.00 0.03 69 1011.0
20260507030239 25 162 22.5 69.2 0.00 0.00 0.03 69 1011.0
20260507030042 25 162 22.5 69.2 0.00 0.00 0.03 69 1011.0
20260507025840 24 159 22.5 69.2 0.00 0.00 0.03 73 1011.0
20260507025640 24 159 22.5 69.2 0.00 0.00 0.03 73 1011.0
20260507025440 24 159 22.5 69.2 0.00 0.00 0.03 73 1011.0
20260507025240 24 159 22.5 69.2 0.00 0.00 0.03 73 1011.0
20260507025040 24 159 22.5 69.2 0.00 0.00 0.03 73 1011.0
20260507024840 24 159 22.5 69.2 0.00 0.00 0.03 73 1011.0
20260507024440 23 156 22.5 69.2 0.00 0.00 0.03 76 1011.0
20260507024239 23 156 22.5 69.2 0.00 0.00 0.03 76 1011.0
20260507024040 23 156 22.5 69.2 0.00 0.00 0.03 76 1011.0
20260507023839 23 156 22.5 69.2 0.00 0.00 0.03 76 1011.0
20260507023640 23 156 22.5 69.2 0.00 0.00 0.03 76 1011.0
20260507023440 23 156 22.5 69.2 0.00 0.00 0.03 76 1011.0
20260507023240 23 156 22.5 69.2 0.00 0.00 0.03 76 1011.0
20260507023040 23 156 22.5 69.2 0.00 0.00 0.03 76 1011.0
20260507022840 23 154 24.1 69.2 0.00 0.00 0.03 80 1011.0
20260507022440 23 154 24.1 69.2 0.00 0.00 0.03 80 1011.0
20260507022240 23 154 24.1 69.2 0.00 0.00 0.03 80 1011.0
20260507022039 23 154 24.1 69.2 0.00 0.00 0.03 80 1011.0
20260507021839 23 154 24.1 69.2 0.00 0.00 0.03 80 1011.0
20260507021640 23 154 24.1 69.2 0.00 0.00 0.03 80 1011.0
20260507021440 22 152 24.1 67.6 0.00 0.00 0.03 83 1011.0
20260507021240 22 152 24.1 67.6 0.00 0.00 0.03 83 1011.0
20260507021040 22 152 24.1 67.6 0.00 0.00 0.03 83 1011.0
20260507020840 22 152 24.1 67.6 0.00 0.00 0.03 83 1011.0
20260507020640 22 152 24.1 67.6 0.00 0.00 0.03 83 1011.0
20260507020240 22 152 24.1 67.6 0.00 0.00 0.03 83 1011.0
20260507020041 22 152 24.1 67.6 0.00 0.00 0.03 83 1011.0
20260507015840 22 149 24.1 66.0 0.00 0.00 0.03 86 1011.0
20260507015640 22 149 24.1 66.0 0.00 0.00 0.03 86 1011.0
20260507015440 22 149 24.1 66.0 0.00 0.00 0.03 86 1011.0
20260507015240 22 149 24.1 66.0 0.00 0.00 0.03 86 1011.0
20260507015040 22 149 24.1 66.0 0.00 0.00 0.03 86 1011.0
20260507014840 22 149 24.1 66.0 0.00 0.00 0.03 86 1011.0
20260507014640 22 149 24.1 66.0 0.00 0.00 0.03 86 1011.0
20260507014240 22 145 22.5 62.8 0.00 0.00 0.03 89 1011.0
20260507014040 22 145 22.5 62.8 0.00 0.00 0.03 89 1011.0
20260507013840 22 145 22.5 62.8 0.00 0.00 0.03 89 1011.0
20260507013640 22 145 22.5 62.8 0.00 0.00 0.03 89 1011.0
20260507013440 22 148 20.9 62.8 0.00 0.00 0.03 89 1011.0
20260507013240 22 148 20.9 62.8 0.00 0.00 0.03 89 1011.0
20260507013040 22 148 20.9 59.5 0.00 0.00 0.03 89 1011.0
20260507012840 21 147 22.5 56.3 0.00 0.00 0.03 91 1011.0
20260507012640 21 147 22.5 56.3 0.00 0.00 0.03 91 1011.0
20260507012440 21 147 22.5 56.3 0.00 0.00 0.03 91 1011.0
20260507012040 21 147 22.5 56.3 0.00 0.00 0.03 93 1011.0
20260507011840 21 147 22.5 56.3 0.00 0.00 0.03 93 1011.0
20260507011640 21 147 22.5 56.3 0.00 0.00 0.03 93 1011.0
20260507011440 21 148 24.1 54.7 0.00 0.00 0.03 94 1010.0
20260507011240 21 148 24.1 54.7 0.00 0.00 0.03 94 1010.0
20260507011040 21 148 24.1 54.7 0.00 0.00 0.03 94 1011.0
20260507010840 21 148 24.1 54.7 0.00 0.00 0.03 95 1011.0
20260507010640 21 148 24.1 54.7 0.00 0.00 0.03 95 1011.0
20260507010440 21 148 24.1 54.7 0.00 0.00 0.03 95 1011.0
20260507010240 21 148 24.1 54.7 0.00 0.00 0.03 95 1011.0
20260507005840 21 147 25.7 54.7 0.00 0.00 0.03 96 1011.0
20260507005640 21 147 25.7 54.7 0.00 0.00 0.03 96 1011.0
20260507005440 21 147 25.7 54.7 0.00 0.00 0.03 96 1011.0
20260507005242 21 147 25.7 54.7 0.00 0.00 0.03 96 1011.0
20260507005040 21 147 25.7 54.7 0.00 0.00 0.03 96 1011.0
20260507004840 21 147 25.7 54.7 0.00 0.00 0.03 96 1011.0
20260507004640 21 147 25.7 54.7 0.00 0.00 0.03 96 1011.0
20260507004440 21 147 25.7 56.3 0.00 0.00 0.03 96 1010.0
20260507004240 21 147 25.7 56.3 0.00 0.00 0.03 96 1010.0
20260507003840 21 147 25.7 56.3 0.00 0.00 0.03 96 1010.0
20260507003640 21 147 25.7 56.3 0.00 0.00 0.03 96 1010.0
20260507003440 21 147 25.7 56.3 0.00 0.00 0.03 96 1010.0
20260507003240 21 147 25.7 56.3 0.00 0.00 0.03 96 1010.0
20260507003040 21 147 25.7 56.3 0.00 0.00 0.03 96 1010.0
20260507002840 21 148 24.1 57.9 0.00 0.00 0.03 96 1010.0
20260507002640 21 148 24.1 57.9 0.00 0.00 0.03 96 1010.0
20260507002440 21 148 24.1 57.9 0.00 0.00 0.03 96 1010.0
20260507002240 21 148 24.1 57.9 0.00 0.00 0.03 96 1010.0
20260507002040 21 148 24.1 57.9 0.00 0.00 0.03 96 1010.0
20260507001640 21 148 24.1 57.9 0.00 0.00 0.03 96 1010.0
20260507001440 21 148 24.1 57.9 0.00 0.00 0.03 95 1010.0
20260507001240 21 148 24.1 57.9 0.00 0.00 0.03 95 1010.0
20260507001040 21 148 24.1 57.9 0.00 0.00 0.03 95 1010.0
20260507000840 21 148 24.1 57.9 0.00 0.00 0.03 95 1010.0
20260507000640 21 148 24.1 57.9 0.00 0.00 0.03 95 1010.0
20260507000442 21 148 24.1 57.9 0.00 0.00 0.03 95 1010.0
20260507000240 21 148 24.1 57.9 0.00 0.00 0.03 95 1010.0
20260507000043 21 148 24.1 57.9 0.00 0.00 0.03 95 1010.0
20260506235640 21 149 24.1 56.3 0.00 0.00 0.03 95 1010.0
20260506235440 21 149 24.1 56.3 0.00 0.00 0.03 95 1010.0
20260506235240 21 149 24.1 56.3 0.00 0.00 0.03 95 1010.0
20260506235040 21 149 24.1 56.3 0.00 0.00 0.03 95 1010.0
20260506234840 21 149 24.1 56.3 0.00 0.00 0.03 95 1010.0
20260506234640 21 149 24.1 56.3 0.00 0.00 0.03 95 1010.0
20260506234440 21 151 24.1 54.7 0.00 0.00 0.03 95 1010.0
20260506234240 21 151 24.1 54.7 0.00 0.00 0.03 95 1010.0
20260506234040 21 151 24.1 54.7 0.00 0.00 0.03 95 1010.0
20260506233840 21 151 24.1 54.7 0.00 0.00 0.03 95 1010.0
20260506233440 21 151 24.1 54.7 0.00 0.00 0.03 95 1010.0
20260506233240 21 151 24.1 54.7 0.00 0.00 0.03 95 1010.0
20260506233041 21 151 24.1 54.7 0.00 0.00 0.03 95 1010.0
20260506232840 21 152 24.1 54.7 0.00 0.00 0.03 94 1010.0
20260506232640 21 152 24.1 54.7 0.00 0.00 0.03 94 1010.0
20260506232441 21 152 24.1 54.7 0.00 0.00 0.03 94 1010.0
20260506232240 21 152 24.1 54.7 0.00 0.00 0.03 94 1010.0
20260506232040 21 152 24.1 54.7 0.00 0.00 0.03 94 1010.0
20260506231840 21 152 24.1 54.7 0.00 0.00 0.03 94 1010.0
20260506231640 21 152 24.1 54.7 0.00 0.00 0.03 94 1010.0
20260506231240 21 153 24.1 53.1 0.00 0.00 0.03 93 1010.0
20260506231040 21 153 24.1 53.1 0.00 0.00 0.03 93 1010.0
20260506230840 21 153 24.1 53.1 0.00 0.00 0.03 93 1010.0
20260506230640 21 153 24.1 53.1 0.00 0.00 0.03 93 1010.0
20260506230440 21 153 24.1 53.1 0.00 0.00 0.03 93 1010.0
20260506230240 21 153 24.1 53.1 0.00 0.00 0.03 93 1010.0
20260506230042 21 153 24.1 53.1 0.00 0.00 0.03 93 1010.0
20260506225840 21 152 22.5 53.1 0.00 0.00 0.03 93 1009.0
20260506225640 21 152 22.5 53.1 0.00 0.00 0.03 93 1009.0
20260506225441 21 152 22.5 53.1 0.00 0.00 0.03 93 1009.0
20260506225040 21 152 22.5 53.1 0.00 0.00 0.03 93 1009.0
20260506224840 21 152 22.5 53.1 0.00 0.00 0.03 93 1009.0
20260506224640 21 152 22.5 53.1 0.00 0.00 0.03 93 1009.0
20260506224440 21 151 24.1 54.7 0.00 0.00 0.03 93 1009.0
20260506224240 21 151 24.1 54.7 0.00 0.00 0.03 93 1009.0
20260506224040 21 151 24.1 54.7 0.00 0.00 0.03 93 1009.0
20260506223840 21 151 24.1 54.7 0.00 0.00 0.03 93 1009.0
20260506223640 21 151 24.1 54.7 0.00 0.00 0.03 93 1009.0
20260506223440 21 151 24.1 54.7 0.00 0.00 0.03 93 1009.0
20260506223040 21 151 24.1 54.7 0.00 0.00 0.03 93 1009.0
20260506222840 21 149 22.5 54.7 0.00 0.00 0.03 93 1009.0
20260506222640 21 149 22.5 54.7 0.00 0.00 0.03 93 1009.0
20260506222440 21 149 22.5 54.7 0.00 0.00 0.03 93 1009.0
20260506222240 21 149 22.5 54.7 0.00 0.00 0.03 93 1009.0
20260506222040 21 149 22.5 54.7 0.00 0.00 0.03 93 1009.0
20260506221840 21 149 22.5 54.7 0.00 0.00 0.03 93 1009.0
20260506221640 21 149 22.5 54.7 0.00 0.00 0.03 93 1009.0
20260506221440 21 147 22.5 54.7 0.00 0.00 0.03 93 1009.0
20260506221040 21 147 22.5 54.7 0.00 0.00 0.03 93 1009.0
20260506220840 21 147 22.5 54.7 0.00 0.00 0.03 93 1009.0
20260506220640 21 147 22.5 54.7 0.00 0.00 0.03 93 1009.0
20260506220440 21 147 22.5 54.7 0.00 0.00 0.03 93 1009.0
20260506220240 21 147 22.5 54.7 0.00 0.00 0.03 93 1009.0
20260506220043 21 147 22.5 54.7 0.00 0.00 0.03 93 1009.0
20260506215840 21 147 22.5 54.7 0.00 0.00 0.03 93 1009.0
20260506215640 21 147 22.5 54.7 0.00 0.00 0.03 93 1009.0
20260506215440 21 147 22.5 54.7 0.00 0.00 0.03 93 1009.0
20260506215241 21 147 22.5 54.7 0.00 0.00 0.03 93 1009.0
20260506214840 21 147 22.5 54.7 0.00 0.00 0.03 93 1009.0
20260506214640 21 147 22.5 54.7 0.00 0.00 0.03 93 1009.0
20260506214440 21 146 24.1 53.1 0.00 0.00 0.03 93 1009.0
20260506214240 21 146 24.1 53.1 0.00 0.00 0.03 93 1009.0
20260506214040 21 146 24.1 53.1 0.00 0.00 0.03 93 1009.0